Time,TemperatureF,DewpointF,PressureIn,WindDirection,WindDirectionDegrees,WindSpeedMPH,WindSpeedGustMPH,Humidity,HourlyPrecipIn,Conditions,Clouds,dailyrainin,SoftwareType,DateUTC
2013-10-07 00:01:00,62.8,61.3,29.90,WSW,250,0.0,0.0,95,0.13,,,0.13,meteohub,2013-10-07 04:01:00,
2013-10-07 00:02:00,62.8,61.3,29.90,WSW,250,0.0,0.0,95,0.13,,,0.13,meteohub,2013-10-07 04:02:00,
2013-10-07 00:07:00,62.4,61.0,29.89,ENE,57,0.0,1.0,95,0.14,,,0.14,meteohub,2013-10-07 04:07:00,
2013-10-07 00:12:00,62.4,61.0,29.89,NNE,27,0.0,1.0,95,0.22,,,0.22,meteohub,2013-10-07 04:12:00,
2013-10-07 00:17:00,62.4,61.0,29.90,WSW,257,0.0,1.0,95,0.26,,,0.26,meteohub,2013-10-07 04:17:00,
2013-10-07 00:22:00,62.2,61.2,29.88,North,9,0.0,1.0,96,0.33,,,0.33,meteohub,2013-10-07 04:22:00,
2013-10-07 00:27:00,62.2,61.2,29.88,NE,43,1.0,1.0,96,0.42,,,0.42,meteohub,2013-10-07 04:27:00,
2013-10-07 00:32:00,62.1,61.0,29.88,East,84,1.0,2.0,96,0.45,,,0.45,meteohub,2013-10-07 04:32:00,
2013-10-07 00:37:00,62.1,61.0,29.87,ENE,68,0.0,2.0,96,0.54,,,0.54,meteohub,2013-10-07 04:37:00,
2013-10-07 00:42:00,62.1,61.0,29.87,NNE,18,0.0,2.0,96,0.60,,,0.61,meteohub,2013-10-07 04:42:00,
2013-10-07 00:47:00,62.1,61.0,29.86,NNE,18,0.0,1.0,96,0.54,,,0.64,meteohub,2013-10-07 04:47:00,
2013-10-07 00:52:00,62.1,61.0,29.86,WNW,284,0.0,1.0,96,0.58,,,0.69,meteohub,2013-10-07 04:52:00,
2013-10-07 00:57:00,61.9,60.8,29.86,WNW,290,1.0,1.0,96,0.61,,,0.70,meteohub,2013-10-07 04:57:00,
2013-10-07 01:02:00,61.9,60.8,29.87,South,172,0.0,1.0,96,0.63,,,0.76,meteohub,2013-10-07 05:02:00,
2013-10-07 01:07:00,61.5,60.4,29.88,SSW,205,0.0,1.0,96,0.70,,,0.88,meteohub,2013-10-07 05:07:00,
2013-10-07 01:12:00,61.3,60.3,29.88,WNW,293,0.0,1.0,96,0.76,,,0.99,meteohub,2013-10-07 05:12:00,
2013-10-07 01:17:00,61.0,59.9,29.86,ESE,115,0.0,2.0,96,0.94,,,1.21,meteohub,2013-10-07 05:17:00,
2013-10-07 01:22:00,60.4,59.4,29.86,NNE,23,0.0,2.0,96,0.89,,,1.29,meteohub,2013-10-07 05:22:00,
2013-10-07 01:27:00,60.3,59.2,29.86,NNE,23,0.0,3.0,96,0.87,,,1.30,meteohub,2013-10-07 05:27:00,
2013-10-07 01:32:00,60.1,59.0,29.86,SE,134,0.0,3.0,96,0.86,,,1.35,meteohub,2013-10-07 05:32:00,
2013-10-07 01:37:00,59.9,58.8,29.86,SE,134,0.0,3.0,96,0.81,,,1.37,meteohub,2013-10-07 05:37:00,
2013-10-07 01:42:00,59.9,58.8,29.86,SE,135,0.0,1.0,96,0.80,,,1.41,meteohub,2013-10-07 05:42:00,
2013-10-07 01:47:00,59.7,58.6,29.85,SE,134,0.0,1.0,96,0.78,,,1.43,meteohub,2013-10-07 05:47:00,
2013-10-07 01:52:00,59.7,58.6,29.85,SE,134,0.0,0.0,96,0.74,,,1.43,meteohub,2013-10-07 05:52:00,
2013-10-07 01:57:00,59.5,58.5,29.85,SE,134,0.0,0.0,96,0.72,,,1.44,meteohub,2013-10-07 05:57:00,
2013-10-07 02:02:00,59.5,58.5,29.84,SE,134,0.0,1.0,96,0.63,,,1.44,meteohub,2013-10-07 06:02:00,
2013-10-07 02:07:00,59.5,58.6,29.84,SE,134,0.0,1.0,97,0.54,,,1.44,meteohub,2013-10-07 06:07:00,
2013-10-07 02:12:00,59.5,58.6,29.83,SE,134,0.0,1.0,97,0.33,,,1.44,meteohub,2013-10-07 06:12:00,
2013-10-07 02:18:00,59.4,58.5,29.84,SE,134,0.0,0.0,97,0.20,,,1.44,meteohub,2013-10-07 06:18:00,
2013-10-07 02:23:00,59.4,58.5,29.84,SE,135,0.0,0.0,97,0.15,,,1.44,meteohub,2013-10-07 06:23:00,
2013-10-07 02:28:00,59.4,58.5,29.83,SE,136,0.0,0.0,97,0.11,,,1.44,meteohub,2013-10-07 06:28:00,
2013-10-07 02:33:00,59.4,58.5,29.83,SE,134,0.0,0.0,97,0.08,,,1.44,meteohub,2013-10-07 06:33:00,
2013-10-07 02:38:00,59.4,58.5,29.83,SE,134,0.0,0.0,97,0.06,,,1.45,meteohub,2013-10-07 06:38:00,
2013-10-07 02:43:00,59.4,58.5,29.82,SE,134,0.0,0.0,97,0.03,,,1.45,meteohub,2013-10-07 06:43:00,
2013-10-07 02:48:00,59.4,58.5,29.82,SE,134,0.0,0.0,97,0.02,,,1.45,meteohub,2013-10-07 06:48:00,
2013-10-07 02:53:00,59.4,58.5,29.83,SE,134,0.0,0.0,97,0.03,,,1.46,meteohub,2013-10-07 06:53:00,
2013-10-07 02:58:00,59.4,58.5,29.83,SE,134,0.0,0.0,97,0.02,,,1.46,meteohub,2013-10-07 06:58:00,
2013-10-07 03:03:00,59.4,58.5,29.83,SE,134,0.0,0.0,97,0.03,,,1.47,meteohub,2013-10-07 07:03:00,
2013-10-07 03:08:00,59.4,58.5,29.82,SE,134,0.0,0.0,97,0.04,,,1.48,meteohub,2013-10-07 07:08:00,
2013-10-07 03:13:00,59.4,58.5,29.82,SE,134,0.0,0.0,97,0.04,,,1.48,meteohub,2013-10-07 07:13:00,
2013-10-07 03:18:00,59.4,58.5,29.82,SE,134,0.0,0.0,97,0.04,,,1.48,meteohub,2013-10-07 07:18:00,
2013-10-07 03:23:00,59.4,58.5,29.81,SE,134,0.0,0.0,97,0.04,,,1.48,meteohub,2013-10-07 07:23:00,
2013-10-07 03:28:00,59.4,58.5,29.81,SE,134,0.0,0.0,97,0.04,,,1.48,meteohub,2013-10-07 07:28:00,
2013-10-07 03:33:00,59.5,58.6,29.81,SE,134,0.0,0.0,97,0.04,,,1.48,meteohub,2013-10-07 07:33:00,
2013-10-07 03:38:00,59.5,58.6,29.81,SE,134,0.0,0.0,97,0.03,,,1.48,meteohub,2013-10-07 07:38:00,
2013-10-07 03:43:00,59.5,58.6,29.81,SE,134,0.0,0.0,97,0.03,,,1.48,meteohub,2013-10-07 07:43:00,
2013-10-07 03:48:00,59.5,58.6,29.81,SE,134,0.0,0.0,97,0.03,,,1.48,meteohub,2013-10-07 07:48:00,
2013-10-07 03:53:00,59.7,58.8,29.81,SW,225,0.0,0.0,97,0.05,,,1.51,meteohub,2013-10-07 07:53:00,
2013-10-07 03:58:00,59.9,59.0,29.81,SW,225,0.0,1.0,97,0.09,,,1.55,meteohub,2013-10-07 07:58:00,
2013-10-07 04:03:00,60.1,59.2,29.81,SW,225,0.0,1.0,97,0.12,,,1.59,meteohub,2013-10-07 08:03:00,
2013-10-07 04:08:00,60.1,59.2,29.81,WNW,290,0.0,0.0,97,0.11,,,1.59,meteohub,2013-10-07 08:08:00,
2013-10-07 04:13:00,60.1,59.2,29.81,North,358,0.0,1.0,97,0.11,,,1.59,meteohub,2013-10-07 08:13:00,
2013-10-07 04:18:00,60.3,59.4,29.81,North,359,0.0,1.0,97,0.12,,,1.60,meteohub,2013-10-07 08:18:00,
2013-10-07 04:23:00,60.3,59.4,29.81,NNW,338,0.0,1.0,97,0.12,,,1.60,meteohub,2013-10-07 08:23:00,
2013-10-07 04:28:00,60.6,59.7,29.81,SE,145,0.0,0.0,97,0.13,,,1.61,meteohub,2013-10-07 08:28:00,
2013-10-07 04:33:00,60.8,59.9,29.81,WNW,302,0.0,2.0,97,0.13,,,1.61,meteohub,2013-10-07 08:33:00,
2013-10-07 04:38:00,61.2,60.3,29.81,WNW,283,0.0,2.0,97,0.21,,,1.69,meteohub,2013-10-07 08:38:00,
2013-10-07 04:43:00,61.2,60.3,29.81,NNW,347,0.0,2.0,97,0.26,,,1.74,meteohub,2013-10-07 08:43:00,
2013-10-07 04:48:00,61.3,60.4,29.81,WSW,255,0.0,2.0,97,0.26,,,1.74,meteohub,2013-10-07 08:48:00,
2013-10-07 04:53:00,61.3,60.4,29.82,NW,304,0.0,2.0,97,0.23,,,1.74,meteohub,2013-10-07 08:53:00,
2013-10-07 04:58:00,61.5,60.6,29.82,West,276,0.0,5.0,97,0.18,,,1.75,meteohub,2013-10-07 08:58:00,
2013-10-07 05:03:00,61.3,60.4,29.82,WNW,284,0.0,5.0,97,0.17,,,1.76,meteohub,2013-10-07 09:03:00,
2013-10-07 05:08:00,61.3,60.4,29.82,NW,309,1.0,5.0,97,0.17,,,1.76,meteohub,2013-10-07 09:08:00,
2013-10-07 05:13:00,61.5,60.6,29.82,NW,315,0.0,5.0,97,0.17,,,1.76,meteohub,2013-10-07 09:13:00,
2013-10-07 05:18:00,61.5,60.6,29.82,NW,321,2.0,5.0,97,0.16,,,1.76,meteohub,2013-10-07 09:18:00,
2013-10-07 05:23:00,61.5,60.6,29.81,WNW,287,0.0,3.0,97,0.16,,,1.76,meteohub,2013-10-07 09:23:00,
2013-10-07 05:28:00,61.5,60.6,29.81,North,349,0.0,7.0,97,0.15,,,1.76,meteohub,2013-10-07 09:28:00,
2013-10-07 05:33:00,61.7,60.8,29.82,West,273,0.0,7.0,97,0.14,,,1.76,meteohub,2013-10-07 09:33:00,
2013-10-07 05:38:00,61.9,61.0,29.82,WNW,299,1.0,7.0,97,0.05,,,1.77,meteohub,2013-10-07 09:38:00,
2013-10-07 05:43:00,61.9,61.0,29.81,WNW,291,1.0,3.0,97,0.03,,,1.77,meteohub,2013-10-07 09:43:00,
2013-10-07 05:48:00,61.9,61.0,29.81,WNW,285,0.0,3.0,97,0.03,,,1.77,meteohub,2013-10-07 09:48:00,
2013-10-07 05:53:00,61.9,61.0,29.81,WSW,250,1.0,5.0,97,0.03,,,1.77,meteohub,2013-10-07 09:53:00,
2013-10-07 05:58:00,61.9,61.0,29.82,West,273,0.0,6.0,97,0.03,,,1.78,meteohub,2013-10-07 09:58:00,
2013-10-07 06:03:00,61.9,61.0,29.82,West,281,1.0,6.0,97,0.02,,,1.78,meteohub,2013-10-07 10:03:00,
2013-10-07 06:08:00,61.9,61.0,29.82,WNW,287,1.0,6.0,97,0.02,,,1.78,meteohub,2013-10-07 10:08:00,
2013-10-07 06:14:00,61.9,61.0,29.82,West,274,1.0,5.0,97,0.02,,,1.78,meteohub,2013-10-07 10:14:00,
2013-10-07 06:19:00,61.9,61.0,29.83,WNW,300,0.0,4.0,97,0.03,,,1.79,meteohub,2013-10-07 10:19:00,
2013-10-07 06:24:00,62.1,61.2,29.83,West,275,0.0,3.0,97,0.03,,,1.79,meteohub,2013-10-07 10:24:00,
2013-10-07 06:29:00,62.1,61.2,29.83,WNW,283,0.0,3.0,97,0.03,,,1.79,meteohub,2013-10-07 10:29:00,
2013-10-07 06:34:00,62.1,61.2,29.83,WNW,300,2.0,3.0,97,0.03,,,1.79,meteohub,2013-10-07 10:34:00,
2013-10-07 06:39:00,62.2,61.3,29.83,WNW,283,0.0,6.0,97,0.02,,,1.79,meteohub,2013-10-07 10:39:00,
2013-10-07 06:44:00,62.1,61.2,29.83,SE,129,2.0,6.0,97,0.02,,,1.79,meteohub,2013-10-07 10:44:00,
2013-10-07 06:49:00,61.5,60.4,29.83,SW,233,0.0,6.0,96,0.04,,,1.81,meteohub,2013-10-07 10:49:00,
2013-10-07 06:54:00,61.3,60.3,29.82,West,274,1.0,3.0,96,0.03,,,1.81,meteohub,2013-10-07 10:54:00,
2013-10-07 06:59:00,61.5,60.6,29.82,WNW,293,0.0,3.0,97,0.04,,,1.82,meteohub,2013-10-07 10:59:00,
2013-10-07 07:04:00,61.5,60.6,29.82,WSW,246,0.0,4.0,97,0.04,,,1.82,meteohub,2013-10-07 11:04:00,
2013-10-07 07:09:00,61.7,60.8,29.82,NNW,340,0.0,4.0,97,0.04,,,1.82,meteohub,2013-10-07 11:09:00,
2013-10-07 07:14:00,61.7,60.8,29.82,WNW,297,0.0,6.0,97,0.03,,,1.82,meteohub,2013-10-07 11:14:00,
2013-10-07 07:19:00,61.7,60.8,29.83,WNW,287,0.0,6.0,97,0.04,,,1.83,meteohub,2013-10-07 11:19:00,
2013-10-07 07:24:00,61.7,60.8,29.83,West,280,1.0,6.0,97,0.04,,,1.83,meteohub,2013-10-07 11:24:00,
2013-10-07 07:29:00,61.7,60.8,29.83,West,281,0.0,5.0,97,0.04,,,1.83,meteohub,2013-10-07 11:29:00,
2013-10-07 07:34:00,61.7,60.8,29.83,WNW,293,0.0,4.0,97,0.05,,,1.84,meteohub,2013-10-07 11:34:00,
2013-10-07 07:39:00,61.7,60.8,29.83,West,276,0.0,4.0,97,0.05,,,1.84,meteohub,2013-10-07 11:39:00,
2013-10-07 07:44:00,61.7,60.8,29.83,WNW,288,2.0,3.0,97,0.05,,,1.85,meteohub,2013-10-07 11:44:00,
2013-10-07 07:49:00,61.5,60.6,29.83,West,272,0.0,4.0,97,0.05,,,1.86,meteohub,2013-10-07 11:49:00,
2013-10-07 07:54:00,61.5,60.6,29.83,WNW,283,2.0,6.0,97,0.06,,,1.87,meteohub,2013-10-07 11:54:00,
2013-10-07 07:59:00,61.3,60.4,29.83,WSW,252,0.0,6.0,97,0.05,,,1.87,meteohub,2013-10-07 11:59:00,
2013-10-07 08:04:00,61.3,60.4,29.83,WSW,243,1.0,8.0,97,0.05,,,1.87,meteohub,2013-10-07 12:04:00,
2013-10-07 08:09:00,61.3,60.4,29.82,West,274,0.0,8.0,97,0.05,,,1.87,meteohub,2013-10-07 12:09:00,
2013-10-07 08:14:00,61.3,60.4,29.83,West,269,0.0,8.0,97,0.05,,,1.87,meteohub,2013-10-07 12:14:00,
2013-10-07 08:19:00,61.3,60.4,29.83,South,179,0.0,4.0,97,0.04,,,1.87,meteohub,2013-10-07 12:19:00,
2013-10-07 08:24:00,61.3,60.4,29.82,NW,326,0.0,2.0,97,0.04,,,1.87,meteohub,2013-10-07 12:24:00,
2013-10-07 08:29:00,61.2,60.3,29.83,NNW,344,0.0,2.0,97,0.04,,,1.87,meteohub,2013-10-07 12:29:00,
2013-10-07 08:34:00,61.2,60.3,29.83,East,91,0.0,2.0,97,0.03,,,1.87,meteohub,2013-10-07 12:34:00,
2013-10-07 08:39:00,61.2,60.3,29.83,SW,222,0.0,1.0,97,0.03,,,1.87,meteohub,2013-10-07 12:39:00,
2013-10-07 08:44:00,61.2,60.3,29.83,SSE,148,0.0,1.0,97,0.01,,,1.87,meteohub,2013-10-07 12:44:00,
2013-10-07 08:49:00,61.3,60.4,29.82,SSW,207,1.0,1.0,97,0.01,,,1.87,meteohub,2013-10-07 12:49:00,
2013-10-07 08:54:00,61.3,60.4,29.83,West,277,0.0,1.0,97,0.00,,,1.87,meteohub,2013-10-07 12:54:00,
2013-10-07 08:59:00,61.3,60.4,29.83,ESE,114,0.0,2.0,97,0.00,,,1.87,meteohub,2013-10-07 12:59:00,
2013-10-07 09:04:00,61.7,60.8,29.83,ESE,113,0.0,2.0,97,0.00,,,1.87,meteohub,2013-10-07 13:04:00,
2013-10-07 09:09:00,61.9,61.0,29.84,SE,139,0.0,0.0,97,0.00,,,1.87,meteohub,2013-10-07 13:09:00,
2013-10-07 09:14:00,62.1,61.2,29.84,SE,138,0.0,0.0,97,0.00,,,1.87,meteohub,2013-10-07 13:14:00,
2013-10-07 09:19:00,62.2,61.3,29.84,SE,139,0.0,1.0,97,0.00,,,1.87,meteohub,2013-10-07 13:19:00,
2013-10-07 09:24:00,62.4,61.5,29.84,SE,140,0.0,1.0,97,0.00,,,1.87,meteohub,2013-10-07 13:24:00,
2013-10-07 09:29:00,62.8,61.9,29.84,SE,131,0.0,0.0,97,0.00,,,1.87,meteohub,2013-10-07 13:29:00,
2013-10-07 09:34:00,63.0,62.1,29.84,SE,131,0.0,0.0,97,0.00,,,1.87,meteohub,2013-10-07 13:34:00,
2013-10-07 09:39:00,63.0,61.9,29.85,NE,53,0.0,0.0,96,0.00,,,1.87,meteohub,2013-10-07 13:39:00,
2013-10-07 09:44:00,63.0,61.9,29.85,NE,52,0.0,2.0,96,0.00,,,1.87,meteohub,2013-10-07 13:44:00,
2013-10-07 09:50:00,63.1,62.1,29.85,ENE,68,0.0,2.0,96,0.00,,,1.87,meteohub,2013-10-07 13:50:00,
2013-10-07 09:55:00,63.3,62.2,29.85,East,91,0.0,2.0,96,0.00,,,1.87,meteohub,2013-10-07 13:55:00,
2013-10-07 10:00:00,63.3,62.2,29.85,East,90,0.0,0.0,96,0.00,,,1.87,meteohub,2013-10-07 14:00:00,
2013-10-07 10:05:00,63.3,61.9,29.85,SE,145,0.0,1.0,95,0.00,,,1.87,meteohub,2013-10-07 14:05:00,
2013-10-07 10:10:00,63.7,62.2,29.85,SW,224,0.0,1.0,95,0.00,,,1.87,meteohub,2013-10-07 14:10:00,
2013-10-07 10:15:00,63.9,62.1,29.85,WSW,248,0.0,1.0,94,0.00,,,1.87,meteohub,2013-10-07 14:15:00,
2013-10-07 10:20:00,63.9,61.9,29.86,West,266,0.0,1.0,93,0.00,,,1.87,meteohub,2013-10-07 14:20:00,
2013-10-07 10:25:00,64.0,62.1,29.85,West,266,0.0,1.0,93,0.00,,,1.87,meteohub,2013-10-07 14:25:00,
2013-10-07 10:30:00,64.2,62.2,29.85,SSW,209,0.0,1.0,93,0.00,,,1.87,meteohub,2013-10-07 14:30:00,
2013-10-07 10:35:00,64.6,62.8,29.85,West,271,0.0,1.0,94,0.00,,,1.87,meteohub,2013-10-07 14:35:00,
2013-10-07 10:40:00,65.1,63.3,29.85,SSE,149,0.0,1.0,94,0.00,,,1.87,meteohub,2013-10-07 14:40:00,
2013-10-07 10:45:00,65.7,63.0,29.85,SSW,197,1.0,1.0,91,0.00,,,1.87,meteohub,2013-10-07 14:45:00,
2013-10-07 10:50:00,66.0,63.0,29.85,SSW,208,0.0,3.0,90,0.00,,,1.87,meteohub,2013-10-07 14:50:00,
2013-10-07 10:55:00,66.4,63.3,29.85,SSE,155,0.0,3.0,90,0.00,,,1.87,meteohub,2013-10-07 14:55:00,
2013-10-07 11:00:00,66.6,63.0,29.85,ESE,113,0.0,3.0,88,0.00,,,1.87,meteohub,2013-10-07 15:00:00,
2013-10-07 11:05:00,67.3,63.7,29.85,West,278,1.0,2.0,88,0.00,,,1.87,meteohub,2013-10-07 15:05:00,
2013-10-07 11:10:00,67.6,63.3,29.85,WSW,243,0.0,1.0,86,0.00,,,1.87,meteohub,2013-10-07 15:10:00,
2013-10-07 11:15:00,67.6,62.2,29.85,SSW,195,0.0,4.0,83,0.00,,,1.87,meteohub,2013-10-07 15:15:00,
2013-10-07 11:20:00,67.8,62.4,29.85,West,272,0.0,4.0,83,0.00,,,1.87,meteohub,2013-10-07 15:20:00,
2013-10-07 11:25:00,68.2,63.9,29.85,West,273,0.0,4.0,86,0.00,,,1.87,meteohub,2013-10-07 15:25:00,
2013-10-07 11:30:00,67.8,62.4,29.85,West,280,0.0,2.0,83,0.00,,,1.87,meteohub,2013-10-07 15:30:00,
2013-10-07 11:35:00,67.6,62.6,29.85,SSW,193,1.0,1.0,84,0.00,,,1.87,meteohub,2013-10-07 15:35:00,
2013-10-07 11:40:00,68.2,63.5,29.85,WNW,290,0.0,2.0,85,0.00,,,1.87,meteohub,2013-10-07 15:40:00,
2013-10-07 11:45:00,68.9,64.6,29.85,South,177,0.0,2.0,86,0.00,,,1.87,meteohub,2013-10-07 15:45:00,
2013-10-07 11:50:00,70.0,64.2,29.84,NE,44,4.0,4.0,82,0.00,,,1.87,meteohub,2013-10-07 15:50:00,
2013-10-07 11:55:00,69.6,63.1,29.85,NNE,30,1.0,6.0,80,0.00,,,1.87,meteohub,2013-10-07 15:55:00,
2013-10-07 12:00:00,68.4,62.6,29.85,NNE,31,0.0,6.0,82,0.00,,,1.87,meteohub,2013-10-07 16:00:00,
2013-10-07 12:05:00,67.3,62.6,29.85,North,7,0.0,6.0,85,0.00,,,1.87,meteohub,2013-10-07 16:05:00,
2013-10-07 12:10:00,67.1,63.1,29.85,NW,321,0.0,6.0,87,0.00,,,1.87,meteohub,2013-10-07 16:10:00,
2013-10-07 12:15:00,67.5,63.1,29.85,NNE,13,2.0,6.0,86,0.00,,,1.87,meteohub,2013-10-07 16:15:00,
2013-10-07 12:20:00,67.3,63.0,29.85,NE,36,2.0,4.0,86,0.00,,,1.87,meteohub,2013-10-07 16:20:00,
2013-10-07 12:25:00,67.5,63.5,29.85,NNE,17,3.0,5.0,87,0.00,,,1.87,meteohub,2013-10-07 16:25:00,
2013-10-07 12:30:00,66.9,62.6,29.86,NE,45,2.0,6.0,86,0.00,,,1.87,meteohub,2013-10-07 16:30:00,
2013-10-07 12:35:00,66.6,62.2,29.85,NNE,18,4.0,12.0,86,0.00,,,1.87,meteohub,2013-10-07 16:35:00,
2013-10-07 12:40:00,66.2,62.2,29.85,North,1,0.0,12.0,87,0.00,,,1.87,meteohub,2013-10-07 16:40:00,
2013-10-07 12:45:00,65.8,61.9,29.85,NNE,33,5.0,12.0,87,0.00,,,1.87,meteohub,2013-10-07 16:45:00,
2013-10-07 12:50:00,65.8,62.2,29.85,WNW,290,1.0,8.0,88,0.00,,,1.87,meteohub,2013-10-07 16:50:00,
2013-10-07 12:55:00,66.2,62.6,29.85,WNW,290,1.0,8.0,88,0.00,,,1.87,meteohub,2013-10-07 16:55:00,
2013-10-07 13:00:00,66.4,62.1,29.85,WNW,288,0.0,8.0,86,0.00,,,1.87,meteohub,2013-10-07 17:00:00,
2013-10-07 13:05:00,66.4,62.1,29.85,WNW,285,0.0,5.0,86,0.00,,,1.87,meteohub,2013-10-07 17:05:00,
2013-10-07 13:10:00,65.8,61.2,29.85,NE,40,5.0,6.0,85,0.00,,,1.87,meteohub,2013-10-07 17:10:00,
2013-10-07 13:15:00,64.9,60.6,29.85,SE,138,2.0,8.0,86,0.00,,,1.87,meteohub,2013-10-07 17:15:00,
2013-10-07 13:20:00,64.2,59.5,29.85,NNE,13,3.0,8.0,85,0.00,,,1.87,meteohub,2013-10-07 17:20:00,
2013-10-07 13:25:00,63.9,59.5,29.85,NNE,30,2.0,8.0,86,0.00,,,1.87,meteohub,2013-10-07 17:25:00,
2013-10-07 13:31:00,63.5,58.8,29.85,NNW,345,1.0,5.0,85,0.00,,,1.87,meteohub,2013-10-07 17:31:00,
2013-10-07 13:36:00,63.1,58.8,29.85,SSW,203,1.0,6.0,86,0.00,,,1.87,meteohub,2013-10-07 17:36:00,
2013-10-07 13:41:00,62.8,58.3,29.85,NE,56,3.0,6.0,85,0.00,,,1.87,meteohub,2013-10-07 17:41:00,
2013-10-07 13:46:00,62.4,58.1,29.85,ENE,58,3.0,9.0,86,0.00,,,1.87,meteohub,2013-10-07 17:46:00,
2013-10-07 13:51:00,62.4,58.5,29.85,ENE,69,2.0,9.0,87,0.00,,,1.87,meteohub,2013-10-07 17:51:00,
2013-10-07 13:56:00,62.2,58.3,29.86,ENE,69,4.0,8.0,87,0.00,,,1.87,meteohub,2013-10-07 17:56:00,
2013-10-07 14:01:00,62.1,57.7,29.86,NE,46,6.0,8.0,86,0.00,,,1.87,meteohub,2013-10-07 18:01:00,
2013-10-07 14:06:00,61.3,57.4,29.86,NNE,26,5.0,8.0,87,0.00,,,1.87,meteohub,2013-10-07 18:06:00,
2013-10-07 14:11:00,61.2,57.6,29.86,NE,52,1.0,9.0,88,0.00,,,1.87,meteohub,2013-10-07 18:11:00,
2013-10-07 14:16:00,61.0,57.0,29.85,NE,46,4.0,9.0,87,0.00,,,1.87,meteohub,2013-10-07 18:16:00,
2013-10-07 14:21:00,60.6,57.0,29.86,East,83,2.0,9.0,88,0.00,,,1.87,meteohub,2013-10-07 18:21:00,
2013-10-07 14:26:00,60.6,57.4,29.86,NE,44,0.0,7.0,89,0.00,,,1.87,meteohub,2013-10-07 18:26:00,
2013-10-07 14:31:00,61.0,57.4,29.86,ENE,78,3.0,6.0,88,0.00,,,1.87,meteohub,2013-10-07 18:31:00,
2013-10-07 14:36:00,61.0,57.7,29.86,NNW,340,0.0,5.0,89,0.00,,,1.87,meteohub,2013-10-07 18:36:00,
2013-10-07 14:41:00,61.0,57.4,29.86,NNE,13,0.0,6.0,88,0.00,,,1.87,meteohub,2013-10-07 18:41:00,
2013-10-07 14:46:00,61.0,57.7,29.86,ESE,108,0.0,6.0,89,0.00,,,1.87,meteohub,2013-10-07 18:46:00,
2013-10-07 14:51:00,61.0,57.4,29.86,NNE,27,3.0,4.0,88,0.00,,,1.87,meteohub,2013-10-07 18:51:00,
2013-10-07 14:56:00,61.0,57.7,29.86,NNE,27,4.0,6.0,89,0.00,,,1.87,meteohub,2013-10-07 18:56:00,
2013-10-07 15:01:00,60.6,57.4,29.86,East,80,3.0,6.0,89,0.00,,,1.87,meteohub,2013-10-07 19:01:00,
2013-10-07 15:06:00,60.6,57.0,29.86,East,83,3.0,6.0,88,0.00,,,1.87,meteohub,2013-10-07 19:06:00,
2013-10-07 15:11:00,60.4,56.8,29.86,NE,44,4.0,7.0,88,0.00,,,1.87,meteohub,2013-10-07 19:11:00,
2013-10-07 15:16:00,60.6,57.0,29.86,ENE,58,3.0,7.0,88,0.00,,,1.87,meteohub,2013-10-07 19:16:00,
2013-10-07 15:21:00,60.8,57.2,29.86,North,11,4.0,7.0,88,0.00,,,1.87,meteohub,2013-10-07 19:21:00,
2013-10-07 15:26:00,61.2,57.0,29.86,NNW,342,2.0,8.0,86,0.00,,,1.87,meteohub,2013-10-07 19:26:00,
2013-10-07 15:31:00,61.2,57.0,29.86,East,90,1.0,8.0,86,0.00,,,1.87,meteohub,2013-10-07 19:31:00,
2013-10-07 15:36:00,61.2,57.0,29.86,SE,136,2.0,8.0,86,0.00,,,1.87,meteohub,2013-10-07 19:36:00,
2013-10-07 15:41:00,61.0,56.8,29.86,NE,35,2.0,8.0,86,0.00,,,1.87,meteohub,2013-10-07 19:41:00,
2013-10-07 15:46:00,60.8,56.8,29.86,East,79,2.0,7.0,87,0.00,,,1.87,meteohub,2013-10-07 19:46:00,
2013-10-07 15:51:00,61.0,57.4,29.86,NNE,20,6.0,6.0,88,0.00,,,1.87,meteohub,2013-10-07 19:51:00,
2013-10-07 15:56:00,61.2,57.0,29.86,ENE,67,1.0,8.0,86,0.00,,,1.87,meteohub,2013-10-07 19:56:00,
2013-10-07 16:01:00,61.2,57.0,29.86,ENE,61,3.0,8.0,86,0.00,,,1.87,meteohub,2013-10-07 20:01:00,
2013-10-07 16:06:00,61.2,57.2,29.86,ENE,76,4.0,8.0,87,0.00,,,1.87,meteohub,2013-10-07 20:06:00,
2013-10-07 16:11:00,61.2,57.0,29.86,NE,56,2.0,7.0,86,0.00,,,1.87,meteohub,2013-10-07 20:11:00,
2013-10-07 16:16:00,61.0,57.0,29.86,NE,41,5.0,6.0,87,0.00,,,1.87,meteohub,2013-10-07 20:16:00,
2013-10-07 16:21:00,61.2,57.0,29.86,WSW,253,0.0,6.0,86,0.00,,,1.87,meteohub,2013-10-07 20:21:00,
2013-10-07 16:26:00,61.5,57.4,29.86,ENE,77,6.0,6.0,86,0.00,,,1.87,meteohub,2013-10-07 20:26:00,
2013-10-07 16:31:00,61.9,57.4,29.86,SE,134,3.0,6.0,85,0.00,,,1.87,meteohub,2013-10-07 20:31:00,
2013-10-07 16:36:00,61.9,57.4,29.86,NE,40,3.0,6.0,85,0.00,,,1.87,meteohub,2013-10-07 20:36:00,
2013-10-07 16:41:00,61.9,57.0,29.86,ENE,63,4.0,6.0,84,0.00,,,1.87,meteohub,2013-10-07 20:41:00,
2013-10-07 16:46:00,62.1,57.6,29.86,ENE,67,1.0,7.0,85,0.00,,,1.87,meteohub,2013-10-07 20:46:00,
2013-10-07 16:51:00,62.2,57.4,29.86,ENE,74,3.0,7.0,84,0.00,,,1.87,meteohub,2013-10-07 20:51:00,
2013-10-07 16:56:00,62.2,57.4,29.86,North,0,2.0,9.0,84,0.00,,,1.87,meteohub,2013-10-07 20:56:00,
2013-10-07 17:02:00,62.1,56.8,29.86,North,3,1.0,9.0,83,0.00,,,1.87,meteohub,2013-10-07 21:02:00,
2013-10-07 17:07:00,62.2,57.4,29.86,ENE,58,3.0,9.0,84,0.00,,,1.87,meteohub,2013-10-07 21:07:00,
2013-10-07 17:12:00,62.4,57.2,29.86,NE,53,4.0,8.0,83,0.00,,,1.87,meteohub,2013-10-07 21:12:00,
2013-10-07 17:17:00,62.4,56.8,29.86,ESE,113,3.0,7.0,82,0.00,,,1.87,meteohub,2013-10-07 21:17:00,
2013-10-07 17:22:00,62.4,57.2,29.87,East,93,0.0,7.0,83,0.00,,,1.87,meteohub,2013-10-07 21:22:00,
2013-10-07 17:27:00,62.2,56.7,29.87,NE,51,2.0,7.0,82,0.00,,,1.87,meteohub,2013-10-07 21:27:00,
2013-10-07 17:32:00,62.2,56.7,29.87,East,84,0.0,9.0,82,0.00,,,1.87,meteohub,2013-10-07 21:32:00,
2013-10-07 17:37:00,62.1,56.1,29.87,NNE,22,4.0,9.0,81,0.00,,,1.87,meteohub,2013-10-07 21:37:00,
2013-10-07 17:42:00,61.9,55.9,29.87,East,97,2.0,9.0,81,0.00,,,1.87,meteohub,2013-10-07 21:42:00,
2013-10-07 17:47:00,61.5,55.9,29.87,NNE,20,5.0,7.0,82,0.00,,,1.87,meteohub,2013-10-07 21:47:00,
2013-10-07 17:52:00,61.5,55.2,29.88,NNE,33,6.0,8.0,80,0.00,,,1.87,meteohub,2013-10-07 21:52:00,
2013-10-07 17:57:00,61.5,55.9,29.88,ESE,120,3.0,9.0,82,0.00,,,1.87,meteohub,2013-10-07 21:57:00,
2013-10-07 18:02:00,61.3,55.0,29.88,NNE,30,1.0,9.0,80,0.00,,,1.87,meteohub,2013-10-07 22:02:00,
2013-10-07 18:07:00,60.8,54.7,29.88,NE,35,5.0,11.0,80,0.00,,,1.87,meteohub,2013-10-07 22:07:00,
2013-10-07 18:12:00,60.4,54.5,29.88,North,3,0.0,11.0,81,0.00,,,1.87,meteohub,2013-10-07 22:12:00,
2013-10-07 18:17:00,60.3,54.3,29.88,North,352,0.0,10.0,81,0.00,,,1.87,meteohub,2013-10-07 22:17:00,
2013-10-07 18:22:00,59.9,54.3,29.90,North,4,1.0,10.0,82,0.00,,,1.87,meteohub,2013-10-07 22:22:00,
2013-10-07 18:27:00,59.5,54.0,29.89,North,11,1.0,9.0,82,0.00,,,1.87,meteohub,2013-10-07 22:27:00,
2013-10-07 18:32:00,58.8,53.6,29.90,NE,44,4.0,9.0,83,0.00,,,1.87,meteohub,2013-10-07 22:32:00,
2013-10-07 18:37:00,58.5,53.6,29.89,ENE,72,4.0,9.0,84,0.00,,,1.87,meteohub,2013-10-07 22:37:00,
2013-10-07 18:42:00,58.1,53.2,29.90,East,94,3.0,9.0,84,0.00,,,1.87,meteohub,2013-10-07 22:42:00,
2013-10-07 18:47:00,57.7,52.9,29.90,East,100,2.0,9.0,84,0.00,,,1.87,meteohub,2013-10-07 22:47:00,
2013-10-07 18:52:00,57.6,53.1,29.91,NE,37,4.0,8.0,85,0.00,,,1.87,meteohub,2013-10-07 22:52:00,
2013-10-07 18:57:00,57.2,52.7,29.90,North,6,4.0,10.0,85,0.00,,,1.87,meteohub,2013-10-07 22:57:00,
2013-10-07 19:02:00,56.8,52.3,29.91,East,80,9.0,10.0,85,0.00,,,1.87,meteohub,2013-10-07 23:02:00,
2013-10-07 19:07:00,56.7,52.2,29.91,NNE,22,3.0,10.0,85,0.00,,,1.87,meteohub,2013-10-07 23:07:00,
2013-10-07 19:12:00,56.3,51.8,29.91,NE,40,6.0,9.0,85,0.00,,,1.87,meteohub,2013-10-07 23:12:00,
2013-10-07 19:17:00,56.1,51.6,29.91,NNE,33,6.0,9.0,85,0.00,,,1.87,meteohub,2013-10-07 23:17:00,
2013-10-07 19:22:00,55.9,51.8,29.91,NE,50,3.0,9.0,86,0.00,,,1.87,meteohub,2013-10-07 23:22:00,
2013-10-07 19:27:00,55.9,51.4,29.91,East,85,0.0,9.0,85,0.00,,,1.87,meteohub,2013-10-07 23:27:00,
2013-10-07 19:32:00,55.8,51.3,29.91,SE,141,0.0,9.0,85,0.00,,,1.87,meteohub,2013-10-07 23:32:00,
2013-10-07 19:37:00,55.6,51.1,29.92,NNE,26,3.0,9.0,85,0.00,,,1.87,meteohub,2013-10-07 23:37:00,
2013-10-07 19:42:00,55.4,50.9,29.92,NE,47,2.0,7.0,85,0.00,,,1.87,meteohub,2013-10-07 23:42:00,
2013-10-07 19:47:00,55.2,51.1,29.93,ENE,71,2.0,8.0,86,0.00,,,1.87,meteohub,2013-10-07 23:47:00,
2013-10-07 19:52:00,55.0,50.9,29.93,NE,41,4.0,8.0,86,0.00,,,1.87,meteohub,2013-10-07 23:52:00,
2013-10-07 19:57:00,54.9,50.7,29.94,NE,53,3.0,8.0,86,0.00,,,1.87,meteohub,2013-10-07 23:57:00,
2013-10-07 20:02:00,54.7,50.9,29.93,ENE,68,4.0,8.0,87,0.00,,,1.87,meteohub,2013-10-08 00:02:00,
2013-10-07 20:07:00,54.5,50.7,29.94,East,89,0.0,8.0,87,0.00,,,0.00,meteohub,2013-10-08 00:07:00,
2013-10-07 20:12:00,54.3,50.5,29.94,East,84,1.0,7.0,87,0.00,,,0.00,meteohub,2013-10-08 00:12:00,
2013-10-07 20:17:00,54.1,50.4,29.94,East,88,1.0,5.0,87,0.00,,,0.00,meteohub,2013-10-08 00:17:00,
2013-10-07 20:22:00,54.0,50.5,29.94,ESE,104,1.0,7.0,88,0.00,,,0.00,meteohub,2013-10-08 00:22:00,
2013-10-07 20:27:00,54.0,50.2,29.94,ENE,70,0.0,7.0,87,0.00,,,0.00,meteohub,2013-10-08 00:27:00,
2013-10-07 20:32:00,54.0,50.2,29.94,SE,145,0.0,6.0,87,0.00,,,0.00,meteohub,2013-10-08 00:32:00,
2013-10-07 20:37:00,54.0,49.8,29.95,NE,37,2.0,6.0,86,0.00,,,0.00,meteohub,2013-10-08 00:37:00,
2013-10-07 20:42:00,54.0,49.8,29.95,East,91,0.0,5.0,86,0.00,,,0.00,meteohub,2013-10-08 00:42:00,
2013-10-07 20:47:00,54.0,49.6,29.94,ENE,64,2.0,5.0,85,0.00,,,0.00,meteohub,2013-10-08 00:47:00,
2013-10-07 20:52:00,53.8,49.5,29.95,NNE,20,0.0,5.0,85,0.00,,,0.00,meteohub,2013-10-08 00:52:00,
2013-10-07 20:57:00,53.8,49.5,29.95,NE,42,0.0,5.0,85,0.00,,,0.00,meteohub,2013-10-08 00:57:00,
2013-10-07 21:02:00,53.8,49.1,29.95,North,354,2.0,3.0,84,0.00,,,0.00,meteohub,2013-10-08 01:02:00,
2013-10-07 21:07:00,54.0,48.6,29.96,ENE,58,0.0,7.0,82,0.00,,,0.00,meteohub,2013-10-08 01:07:00,
2013-10-07 21:12:00,53.8,49.1,29.96,NNE,12,5.0,7.0,84,0.00,,,0.00,meteohub,2013-10-08 01:12:00,
2013-10-07 21:17:00,53.4,48.7,29.96,NNE,26,3.0,7.0,84,0.00,,,0.00,meteohub,2013-10-08 01:17:00,
2013-10-07 21:22:00,53.4,48.4,29.96,North,4,0.0,5.0,83,0.00,,,0.00,meteohub,2013-10-08 01:22:00,
2013-10-07 21:27:00,53.2,48.6,29.96,NNE,32,0.0,8.0,84,0.00,,,0.00,meteohub,2013-10-08 01:27:00,
2013-10-07 21:32:00,53.1,48.4,29.96,NNE,29,2.0,8.0,84,0.00,,,0.00,meteohub,2013-10-08 01:32:00,
2013-10-07 21:37:00,53.1,48.4,29.97,NE,42,0.0,4.0,84,0.00,,,0.00,meteohub,2013-10-08 01:37:00,
2013-10-07 21:42:00,53.1,48.4,29.97,NNE,27,0.0,5.0,84,0.00,,,0.00,meteohub,2013-10-08 01:42:00,
2013-10-07 21:47:00,52.7,48.0,29.98,ENE,74,0.0,5.0,84,0.00,,,0.00,meteohub,2013-10-08 01:47:00,
2013-10-07 21:52:00,52.9,48.2,29.98,ENE,71,0.0,5.0,84,0.00,,,0.00,meteohub,2013-10-08 01:52:00,
2013-10-07 21:57:00,52.5,47.8,29.98,SE,124,0.0,4.0,84,0.00,,,0.00,meteohub,2013-10-08 01:57:00,
2013-10-07 22:02:00,52.9,48.2,29.99,NNE,30,2.0,5.0,84,0.00,,,0.00,meteohub,2013-10-08 02:02:00,
2013-10-07 22:07:00,52.7,48.4,29.99,WSW,246,1.0,6.0,85,0.00,,,0.00,meteohub,2013-10-08 02:07:00,
2013-10-07 22:12:00,52.5,48.2,29.99,ESE,115,1.0,6.0,85,0.00,,,0.00,meteohub,2013-10-08 02:12:00,
2013-10-07 22:17:00,52.2,48.0,29.99,SE,131,2.0,5.0,86,0.00,,,0.00,meteohub,2013-10-08 02:17:00,
2013-10-07 22:22:00,52.0,47.8,30.00,NE,36,0.0,5.0,86,0.00,,,0.00,meteohub,2013-10-08 02:22:00,
2013-10-07 22:27:00,51.6,47.8,30.00,NE,56,0.0,5.0,87,0.00,,,0.00,meteohub,2013-10-08 02:27:00,
2013-10-07 22:32:00,51.4,47.7,30.00,ESE,102,0.0,6.0,87,0.00,,,0.00,meteohub,2013-10-08 02:32:00,
2013-10-07 22:37:00,51.6,47.8,30.00,ENE,57,4.0,6.0,87,0.00,,,0.00,meteohub,2013-10-08 02:37:00,
2013-10-07 22:42:00,52.2,47.8,29.99,NNE,23,1.0,9.0,85,0.00,,,0.00,meteohub,2013-10-08 02:42:00,
2013-10-07 22:47:00,52.2,47.1,29.99,NE,40,0.0,9.0,83,0.00,,,0.00,meteohub,2013-10-08 02:47:00,
2013-10-07 22:52:00,52.3,47.7,30.00,NNE,30,2.0,9.0,84,0.00,,,0.00,meteohub,2013-10-08 02:52:00,
2013-10-07 22:57:00,52.2,47.8,30.00,NNE,29,0.0,4.0,85,0.00,,,0.00,meteohub,2013-10-08 02:57:00,
2013-10-07 23:02:00,51.6,47.5,30.00,SE,136,0.0,9.0,86,0.00,,,0.00,meteohub,2013-10-08 03:02:00,
2013-10-07 23:07:00,51.1,47.1,30.00,ENE,66,3.0,9.0,86,0.00,,,0.00,meteohub,2013-10-08 03:07:00,
2013-10-07 23:12:00,51.4,47.1,30.00,NNE,22,2.0,9.0,85,0.00,,,0.00,meteohub,2013-10-08 03:12:00,
2013-10-07 23:17:00,51.3,47.3,30.00,ENE,68,0.0,4.0,86,0.00,,,0.00,meteohub,2013-10-08 03:17:00,
2013-10-07 23:22:00,51.4,47.1,30.00,NE,41,0.0,4.0,85,0.00,,,0.00,meteohub,2013-10-08 03:22:00,
2013-10-07 23:27:00,51.6,46.9,30.00,NNE,16,1.0,6.0,84,0.00,,,0.00,meteohub,2013-10-08 03:27:00,
2013-10-07 23:32:00,51.6,47.3,30.00,NNE,26,0.0,6.0,85,0.00,,,0.00,meteohub,2013-10-08 03:32:00,
2013-10-07 23:37:00,51.8,46.8,30.00,ENE,75,1.0,6.0,83,0.00,,,0.00,meteohub,2013-10-08 03:37:00,
2013-10-07 23:42:00,51.6,46.9,30.01,ENE,68,0.0,5.0,84,0.00,,,0.00,meteohub,2013-10-08 03:42:00,
2013-10-07 23:47:00,51.6,47.3,30.01,SSE,149,0.0,7.0,85,0.00,,,0.00,meteohub,2013-10-08 03:47:00,
2013-10-07 23:52:00,51.4,47.5,30.01,NNE,25,0.0,7.0,86,0.00,,,0.00,meteohub,2013-10-08 03:52:00,
2013-10-07 23:57:00,50.9,46.9,30.01,North,1,0.0,3.0,86,0.00,,,0.00,meteohub,2013-10-08 03:57:00,